DAL1152 KLAX-KPHX

Flight info

Callsign DAL1152
Flight time 1h 4m
Altitude 31000
Route DOTSS2 CNERY BLH HYDRR1
Aircraft A320/M-SDE3FGHIRWY/LB1

Departure

Time 2026-05-07 03:03
Airport Los Angeles International Airport (KLAX)

Arrival

Time 2026-05-07 04:07
Airport Phoenix Sky Harbor International Airport (KPHX)
Time Latitude Longitude Altitude Speed Heading
2026-05-07 02:40 33.94673 -118.40335 121 ft 0 kts 263°
2026-05-07 02:55 33.94674 -118.40330 121 ft 3 kts 263°
2026-05-07 02:55 33.94677 -118.40298 121 ft 4 kts 263°
2026-05-07 02:55 33.94681 -118.40266 120 ft 4 kts 263°
2026-05-07 02:56 33.94681 -118.40260 120 ft 0 kts 263°
2026-05-07 02:58 33.94683 -118.40262 126 ft 1 kts 280°
2026-05-07 02:58 33.94700 -118.40261 122 ft 7 kts 360°
2026-05-07 02:58 33.94759 -118.40263 121 ft 2 kts 356°
2026-05-07 02:58 33.94762 -118.40263 124 ft 0 kts 355°
2026-05-07 02:59 33.94779 -118.40266 124 ft 8 kts 352°
2026-05-07 02:59 33.94850 -118.40289 122 ft 10 kts 348°
2026-05-07 03:00 33.94899 -118.40250 122 ft 9 kts 70°
2026-05-07 03:00 33.94908 -118.40184 124 ft 7 kts 82°
2026-05-07 03:00 33.94914 -118.40128 124 ft 8 kts 83°
2026-05-07 03:00 33.94922 -118.40033 125 ft 11 kts 84°
2026-05-07 03:01 33.94937 -118.39946 124 ft 10 kts 62°
2026-05-07 03:01 33.94953 -118.39927 122 ft 0 kts 35°
2026-05-07 03:02 33.95016 -118.39920 123 ft 16 kts 347°
2026-05-07 03:02 33.95031 -118.40031 123 ft 17 kts 263°
2026-05-07 03:03 33.94997 -118.40392 126 ft 77 kts 262°
2026-05-07 03:03 33.94904 -118.41279 122 ft 134 kts 263°
2026-05-07 03:03 33.94779 -118.42571 233 ft 169 kts 264°
2026-05-07 03:03 33.94656 -118.43995 883 ft 171 kts 263°
2026-05-07 03:04 33.94514 -118.45423 1694 ft 170 kts 264°
2026-05-07 03:04 33.94381 -118.46874 2213 ft 183 kts 267°
2026-05-07 03:04 33.94302 -118.48496 2516 ft 206 kts 269°
2026-05-07 03:04 33.94243 -118.50330 2830 ft 231 kts 269°
2026-05-07 03:05 33.94142 -118.52363 3255 ft 255 kts 266°
2026-05-07 03:05 33.93981 -118.54536 3969 ft 264 kts 266°
2026-05-07 03:05 33.93800 -118.56760 4850 ft 269 kts 266°
2026-05-07 03:05 33.93613 -118.59026 5675 ft 274 kts 267°
2026-05-07 03:06 33.93194 -118.61294 6476 ft 284 kts 246°
2026-05-07 03:06 33.91949 -118.63158 7207 ft 294 kts 216°
2026-05-07 03:06 33.90063 -118.64097 7940 ft 299 kts 185°
2026-05-07 03:06 33.87982 -118.64073 8724 ft 301 kts 174°
2026-05-07 03:07 33.85882 -118.63879 9539 ft 303 kts 168°
2026-05-07 03:07 33.83848 -118.63225 10261 ft 306 kts 154°
2026-05-07 03:07 33.81909 -118.62004 10506 ft 324 kts 142°
2026-05-07 03:07 33.79991 -118.60404 10727 ft 347 kts 142°
2026-05-07 03:08 33.77970 -118.58737 11239 ft 357 kts 142°
2026-05-07 03:08 33.75899 -118.57051 11919 ft 362 kts 142°
2026-05-07 03:08 33.73799 -118.55358 12629 ft 365 kts 143°
2026-05-07 03:08 33.71767 -118.53510 13336 ft 366 kts 134°
2026-05-07 03:09 33.70064 -118.51242 14014 ft 366 kts 123°
2026-05-07 03:09 33.68765 -118.48621 14616 ft 366 kts 112°
2026-05-07 03:09 33.68139 -118.46739 15024 ft 367 kts 106°
2026-05-07 03:09 33.67016 -118.42884 15838 ft 371 kts 106°
2026-05-07 03:10 33.66150 -118.39952 16441 ft 375 kts 107°
2026-05-07 03:10 33.65270 -118.36987 17026 ft 379 kts 106°
2026-05-07 03:10 33.64623 -118.33927 17613 ft 379 kts 96°
2026-05-07 03:10 33.64451 -118.30774 18192 ft 380 kts 87°
2026-05-07 03:11 33.64460 -118.28619 18560 ft 383 kts 87°
2026-05-07 03:11 33.64468 -118.25415 19080 ft 386 kts 87°
2026-05-07 03:11 33.64472 -118.22184 19618 ft 388 kts 87°
2026-05-07 03:11 33.64475 -118.18973 20149 ft 391 kts 87°
2026-05-07 03:12 33.64474 -118.15701 20677 ft 394 kts 87°
2026-05-07 03:12 33.64469 -118.12403 21206 ft 396 kts 87°
2026-05-07 03:12 33.64468 -118.09087 21715 ft 399 kts 87°
2026-05-07 03:12 33.64468 -118.05743 22227 ft 401 kts 86°
2026-05-07 03:13 33.64467 -118.02393 22734 ft 403 kts 86°
2026-05-07 03:13 33.64464 -117.99010 23204 ft 406 kts 86°
2026-05-07 03:13 33.64458 -117.95612 23653 ft 409 kts 86°
2026-05-07 03:13 33.64450 -117.92192 24043 ft 411 kts 86°
2026-05-07 03:14 33.64440 -117.88752 24424 ft 413 kts 86°
2026-05-07 03:14 33.64428 -117.85291 24803 ft 415 kts 86°
2026-05-07 03:14 33.64065 -117.78342 25527 ft 424 kts 98°
2026-05-07 03:15 33.63285 -117.74896 25882 ft 429 kts 102°
2026-05-07 03:15 33.62433 -117.71463 26213 ft 431 kts 102°
2026-05-07 03:15 33.61580 -117.68009 26561 ft 432 kts 102°
2026-05-07 03:15 33.60726 -117.64539 26883 ft 434 kts 102°
2026-05-07 03:16 33.59867 -117.61053 27201 ft 436 kts 102°
2026-05-07 03:16 33.59005 -117.57557 27511 ft 438 kts 102°
2026-05-07 03:16 33.58139 -117.54052 27821 ft 440 kts 102°
2026-05-07 03:16 33.57277 -117.50576 28114 ft 441 kts 102°
2026-05-07 03:17 33.56399 -117.47042 28423 ft 443 kts 102°
2026-05-07 03:17 33.55514 -117.43497 28727 ft 444 kts 102°
2026-05-07 03:17 33.54626 -117.39944 29005 ft 446 kts 102°
2026-05-07 03:17 33.53737 -117.36379 29298 ft 447 kts 102°
2026-05-07 03:18 33.52846 -117.32801 29567 ft 448 kts 102°
2026-05-07 03:18 33.51955 -117.29221 29843 ft 449 kts 102°
2026-05-07 03:18 33.51079 -117.25641 30196 ft 446 kts 99°
2026-05-07 03:18 33.50534 -117.22013 30493 ft 440 kts 91°
2026-05-07 03:19 33.50406 -117.18371 30767 ft 436 kts 86°
2026-05-07 03:19 33.50367 -117.14746 31028 ft 435 kts 86°
2026-05-07 03:19 33.50325 -117.11138 31083 ft 430 kts 86°
2026-05-07 03:20 33.50234 -117.03887 31086 ft 439 kts 86°
2026-05-07 03:20 33.50129 -116.96551 31082 ft 441 kts 86°
2026-05-07 03:21 33.50020 -116.89245 31084 ft 441 kts 86°
2026-05-07 03:21 33.49905 -116.81907 31070 ft 439 kts 86°
2026-05-07 03:22 33.49783 -116.74576 31065 ft 439 kts 86°
2026-05-07 03:22 33.49659 -116.67262 31054 ft 439 kts 86°
2026-05-07 03:23 33.49536 -116.59938 31027 ft 439 kts 86°
2026-05-07 03:23 33.49407 -116.52627 31049 ft 438 kts 86°
2026-05-07 03:24 33.49272 -116.45346 31029 ft 438 kts 87°
2026-05-07 03:24 33.49139 -116.38057 31004 ft 438 kts 86°
2026-05-07 03:25 33.49037 -116.30767 31000 ft 438 kts 86°
2026-05-07 03:25 33.48945 -116.23530 31002 ft 437 kts 86°
2026-05-07 03:26 33.48831 -116.16271 31001 ft 435 kts 86°
2026-05-07 03:26 33.48699 -116.09043 30993 ft 433 kts 86°
2026-05-07 03:27 33.49156 -116.01927 30985 ft 425 kts 73°
2026-05-07 03:27 33.51005 -115.95251 30977 ft 422 kts 68°
2026-05-07 03:28 33.52957 -115.88615 30987 ft 421 kts 68°
2026-05-07 03:28 33.54884 -115.81983 30982 ft 421 kts 68°
2026-05-07 03:29 33.56813 -115.75358 30982 ft 421 kts 68°
2026-05-07 03:29 33.58735 -115.68739 30977 ft 420 kts 68°
2026-05-07 03:30 33.60640 -115.62156 30973 ft 420 kts 69°
2026-05-07 03:30 33.62276 -115.55414 30961 ft 426 kts 82°
2026-05-07 03:31 33.62175 -115.48266 30957 ft 429 kts 88°
2026-05-07 03:31 33.61925 -115.41103 30954 ft 430 kts 88°
2026-05-07 03:32 33.61668 -115.33926 30954 ft 431 kts 88°
2026-05-07 03:32 33.61424 -115.26779 30948 ft 431 kts 88°
2026-05-07 03:33 33.61181 -115.19581 30940 ft 431 kts 88°
2026-05-07 03:33 33.60937 -115.12393 30942 ft 431 kts 88°
2026-05-07 03:34 33.60685 -115.05198 30946 ft 432 kts 88°
2026-05-07 03:34 33.60425 -114.98005 30984 ft 431 kts 88°
2026-05-07 03:35 33.60155 -114.90825 30987 ft 430 kts 88°
2026-05-07 03:35 33.59885 -114.83667 30983 ft 429 kts 88°
2026-05-07 03:36 33.59567 -114.76511 30983 ft 431 kts 92°
2026-05-07 03:36 33.58319 -114.69434 30969 ft 434 kts 98°
2026-05-07 03:37 33.56944 -114.62385 30969 ft 434 kts 98°
2026-05-07 03:37 33.55569 -114.55342 30957 ft 434 kts 98°
2026-05-07 03:38 33.54202 -114.48348 30951 ft 434 kts 98°
2026-05-07 03:38 33.53514 -114.44824 30820 ft 435 kts 98°
2026-05-07 03:38 33.52823 -114.41298 30580 ft 435 kts 98°
2026-05-07 03:38 33.52128 -114.37775 29977 ft 434 kts 98°
2026-05-07 03:39 33.51433 -114.34235 28729 ft 438 kts 99°
2026-05-07 03:39 33.50737 -114.30682 28173 ft 439 kts 99°
2026-05-07 03:39 33.50034 -114.27106 27670 ft 442 kts 99°
2026-05-07 03:39 33.49326 -114.23524 27186 ft 439 kts 99°
2026-05-07 03:40 33.48625 -114.20020 26852 ft 424 kts 99°
2026-05-07 03:40 33.47952 -114.16678 26565 ft 403 kts 99°
2026-05-07 03:40 33.47304 -114.13468 25777 ft 392 kts 99°
2026-05-07 03:40 33.46676 -114.10312 24932 ft 390 kts 99°
2026-05-07 03:41 33.46059 -114.07192 24915 ft 383 kts 99°
2026-05-07 03:41 33.45450 -114.04109 24776 ft 384 kts 99°
2026-05-07 03:41 33.44822 -114.00961 24626 ft 383 kts 99°
2026-05-07 03:41 33.44208 -113.97905 24483 ft 382 kts 99°
2026-05-07 03:42 33.43585 -113.94807 24333 ft 381 kts 99°
2026-05-07 03:42 33.42967 -113.91725 24186 ft 381 kts 99°
2026-05-07 03:42 33.42351 -113.88641 24040 ft 380 kts 99°
2026-05-07 03:42 33.41735 -113.85567 23889 ft 380 kts 99°
2026-05-07 03:43 33.41116 -113.82490 23741 ft 379 kts 99°
2026-05-07 03:43 33.40495 -113.79423 23597 ft 379 kts 99°
2026-05-07 03:43 33.39876 -113.76359 23446 ft 378 kts 99°
2026-05-07 03:43 33.39260 -113.73300 23281 ft 378 kts 99°
2026-05-07 03:44 33.38646 -113.70245 23146 ft 377 kts 100°
2026-05-07 03:44 33.38031 -113.67204 22990 ft 376 kts 100°
2026-05-07 03:44 33.37416 -113.64172 22840 ft 375 kts 100°
2026-05-07 03:44 33.36800 -113.61142 22694 ft 374 kts 100°
2026-05-07 03:45 33.36185 -113.58123 22548 ft 374 kts 100°
2026-05-07 03:45 33.35568 -113.55105 22410 ft 373 kts 100°
2026-05-07 03:45 33.34949 -113.52091 22257 ft 372 kts 100°
2026-05-07 03:45 33.34334 -113.49091 22111 ft 371 kts 100°
2026-05-07 03:46 33.33721 -113.46087 21965 ft 371 kts 100°
2026-05-07 03:46 33.33145 -113.43094 21708 ft 369 kts 99°
2026-05-07 03:46 33.32617 -113.40093 21466 ft 368 kts 98°
2026-05-07 03:46 33.32118 -113.37100 21230 ft 367 kts 98°
2026-05-07 03:47 33.31627 -113.34109 20987 ft 366 kts 98°
2026-05-07 03:47 33.31131 -113.31120 20748 ft 365 kts 98°
2026-05-07 03:47 33.30628 -113.28160 20517 ft 364 kts 98°
2026-05-07 03:47 33.30121 -113.25239 20285 ft 363 kts 99°
2026-05-07 03:48 33.29608 -113.22287 20038 ft 362 kts 98°
2026-05-07 03:48 33.29142 -113.19338 19800 ft 361 kts 97°
2026-05-07 03:48 33.28719 -113.16387 19608 ft 360 kts 97°
2026-05-07 03:48 33.28314 -113.13443 19374 ft 359 kts 96°
2026-05-07 03:49 33.27913 -113.10507 19151 ft 355 kts 97°
2026-05-07 03:49 33.27530 -113.07637 18966 ft 344 kts 94°
2026-05-07 03:49 33.27483 -113.04823 18757 ft 336 kts 86°
2026-05-07 03:49 33.27572 -113.02036 18570 ft 335 kts 86°
2026-05-07 03:50 33.27647 -112.99256 18334 ft 334 kts 87°
2026-05-07 03:50 33.27714 -112.96481 18077 ft 333 kts 87°
2026-05-07 03:50 33.27778 -112.93721 17837 ft 332 kts 87°
2026-05-07 03:50 33.27842 -112.90980 17603 ft 330 kts 87°
2026-05-07 03:51 33.27905 -112.88233 17365 ft 329 kts 87°
2026-05-07 03:51 33.27968 -112.85514 17145 ft 324 kts 87°
2026-05-07 03:51 33.28029 -112.82869 16994 ft 314 kts 87°
2026-05-07 03:51 33.28148 -112.80289 16729 ft 308 kts 84°
2026-05-07 03:52 33.28361 -112.77757 16495 ft 305 kts 82°
2026-05-07 03:52 33.28619 -112.75243 16206 ft 303 kts 82°
2026-05-07 03:52 33.28885 -112.72750 15918 ft 302 kts 82°
2026-05-07 03:52 33.29143 -112.70275 15628 ft 300 kts 82°
2026-05-07 03:53 33.29392 -112.67807 15339 ft 298 kts 82°
2026-05-07 03:53 33.29631 -112.65354 15052 ft 296 kts 82°
2026-05-07 03:53 33.29859 -112.62946 14767 ft 294 kts 83°
2026-05-07 03:53 33.30086 -112.60522 14483 ft 293 kts 83°
2026-05-07 03:54 33.30309 -112.58108 14197 ft 291 kts 83°
2026-05-07 03:54 33.30530 -112.55715 13914 ft 289 kts 83°
2026-05-07 03:54 33.30751 -112.53331 13600 ft 287 kts 83°
2026-05-07 03:54 33.30971 -112.50960 13323 ft 286 kts 83°
2026-05-07 03:55 33.31188 -112.48603 13031 ft 285 kts 83°
2026-05-07 03:55 33.31403 -112.46251 12757 ft 283 kts 83°
2026-05-07 03:55 33.31615 -112.43914 12475 ft 283 kts 82°
2026-05-07 03:55 33.31828 -112.41574 12214 ft 283 kts 82°
2026-05-07 03:56 33.32043 -112.39238 11941 ft 282 kts 82°
2026-05-07 03:56 33.32257 -112.36905 11665 ft 281 kts 83°
2026-05-07 03:56 33.32469 -112.34582 11393 ft 280 kts 82°
2026-05-07 03:56 33.32682 -112.32263 11120 ft 280 kts 83°
2026-05-07 03:57 33.32894 -112.29956 10848 ft 279 kts 83°
2026-05-07 03:57 33.33104 -112.27657 10577 ft 278 kts 83°
2026-05-07 03:57 33.33241 -112.26136 10395 ft 278 kts 83°
2026-05-07 03:57 33.33448 -112.23848 10128 ft 277 kts 83°
2026-05-07 03:58 33.33721 -112.20824 9764 ft 275 kts 83°
2026-05-07 03:58 33.33927 -112.18548 9473 ft 275 kts 82°
2026-05-07 03:58 33.34126 -112.16315 9359 ft 264 kts 82°
2026-05-07 03:58 33.34315 -112.14179 9255 ft 252 kts 82°
2026-05-07 03:59 33.34440 -112.12791 9184 ft 244 kts 82°
2026-05-07 03:59 33.34619 -112.10812 9080 ft 237 kts 82°
2026-05-07 03:59 33.34758 -112.08884 8976 ft 236 kts 88°
2026-05-07 03:59 33.34735 -112.06917 8706 ft 236 kts 89°
2026-05-07 04:00 33.34710 -112.04962 8457 ft 235 kts 89°
2026-05-07 04:00 33.34685 -112.03006 8206 ft 235 kts 89°
2026-05-07 04:00 33.34659 -112.01055 7959 ft 235 kts 89°
2026-05-07 04:00 33.34633 -111.99104 7709 ft 235 kts 89°
2026-05-07 04:01 33.34607 -111.97145 7461 ft 235 kts 89°
2026-05-07 04:01 33.34581 -111.95190 7212 ft 235 kts 89°
2026-05-07 04:01 33.34557 -111.93230 6962 ft 235 kts 88°
2026-05-07 04:01 33.34556 -111.91272 6679 ft 235 kts 88°
2026-05-07 04:02 33.34546 -111.89310 6359 ft 235 kts 88°
2026-05-07 04:02 33.34538 -111.87358 6044 ft 235 kts 88°
2026-05-07 04:02 33.34557 -111.85408 5715 ft 234 kts 81°
2026-05-07 04:02 33.35133 -111.83637 5397 ft 228 kts 52°
2026-05-07 04:03 33.36155 -111.82184 5053 ft 229 kts 45°
2026-05-07 04:03 33.37296 -111.80875 4717 ft 226 kts 29°
2026-05-07 04:03 33.38741 -111.80190 4347 ft 224 kts
2026-05-07 04:03 33.40276 -111.80143 4021 ft 222 kts 348°
2026-05-07 04:04 33.41728 -111.80736 3923 ft 221 kts 329°
2026-05-07 04:04 33.42926 -111.81870 3807 ft 220 kts 310°
2026-05-07 04:04 33.43734 -111.83405 3615 ft 218 kts 291°
2026-05-07 04:04 33.44052 -111.85152 3378 ft 214 kts 272°
2026-05-07 04:05 33.44058 -111.86902 3105 ft 205 kts 270°
2026-05-07 04:05 33.44061 -111.88555 2857 ft 193 kts 270°
2026-05-07 04:05 33.44064 -111.90126 2614 ft 184 kts 271°
2026-05-07 04:05 33.44067 -111.91620 2414 ft 176 kts 271°
2026-05-07 04:06 33.44070 -111.93058 2181 ft 169 kts 270°
2026-05-07 04:06 33.44073 -111.94449 1974 ft 165 kts 271°
2026-05-07 04:06 33.44076 -111.95811 1755 ft 162 kts 269°
2026-05-07 04:06 33.44078 -111.97133 1542 ft 161 kts 269°
2026-05-07 04:07 33.44077 -111.98461 1320 ft 159 kts 269°
2026-05-07 04:07 33.44076 -111.99801 1159 ft 153 kts 269°
2026-05-07 04:07 33.44084 -112.00927 1129 ft 112 kts 269°
2026-05-07 04:07 33.44084 -112.01440 1131 ft 36 kts 270°
2026-05-07 04:08 33.44075 -112.01645 1132 ft 19 kts 251°
2026-05-07 04:08 33.44016 -112.01725 1122 ft 12 kts 224°
2026-05-07 04:08 33.43934 -112.01776 1122 ft 15 kts 180°
2026-05-07 04:08 33.43902 -112.01681 1125 ft 13 kts 90°
2026-05-07 04:09 33.43901 -112.01583 1125 ft 11 kts 90°
2026-05-07 04:09 33.43901 -112.01495 1125 ft 10 kts 89°
2026-05-07 04:09 33.43902 -112.01418 1125 ft 9 kts 89°
2026-05-07 04:09 33.43902 -112.01317 1125 ft 15 kts 89°
2026-05-07 04:10 33.43902 -112.01203 1125 ft 13 kts 91°
2026-05-07 04:10 33.43902 -112.01102 1125 ft 11 kts 89°
2026-05-07 04:10 33.43901 -112.01012 1125 ft 10 kts 91°
2026-05-07 04:10 33.43900 -112.00932 1125 ft 9 kts 89°
2026-05-07 04:11 33.43901 -112.00846 1125 ft 11 kts 89°
2026-05-07 04:11 33.43901 -112.00763 1125 ft 9 kts 90°
2026-05-07 04:11 33.43901 -112.00660 1125 ft 22 kts 91°
2026-05-07 04:11 33.43888 -112.00489 1120 ft 17 kts 130°
2026-05-07 04:12 33.43769 -112.00467 1120 ft 18 kts 180°
2026-05-07 04:12 33.43634 -112.00467 1120 ft 20 kts 180°
2026-05-07 04:12 33.43487 -112.00468 1122 ft 22 kts 180°
2026-05-07 04:12 33.43337 -112.00469 1119 ft 17 kts 183°
2026-05-07 04:13 33.43287 -112.00581 1118 ft 18 kts 272°
2026-05-07 04:13 33.43296 -112.00715 1118 ft 13 kts 308°
2026-05-07 04:13 33.43338 -112.00809 1123 ft 14 kts 272°
2026-05-07 04:13 33.43365 -112.00871 1125 ft 4 kts
2026-05-07 04:14 33.43388 -112.00872 1114 ft 3 kts 356°
2026-05-07 04:14 33.43396 -112.00873 1122 ft 0 kts 358°